{"data":{"norad_id":43784,"intl_designator":"2018-099AC","name":"SNUGLITE","alt_names":[],"object_type":"PAYLOAD","status":"ACTIVE","operator":null,"country":"SKOR","launch_date":"2018-12-03","launch_site_code":"AFWTR","launch_vehicle":null,"mission":null,"orbit_class":"UNKNOWN","rcs_meters":null,"size_class":null,"mass_kg":null,"dimensions":null,"purposes":[],"wikipedia_slug":null,"has_3d_model":false,"image_url":null,"decayed_at":null,"tle_current":{"epoch":"2026-05-25T03:23:22.007616Z","epoch_age_seconds":66035,"freshness":"FRESH","line1":"1 43784U 18099AC  26145.14122694  .00010610  00000+0  40787-3 0  9996","line2":"2 43784  97.3887 199.6557 0003290  43.6641 316.4857 15.26592280409805","mean_motion":15.2659228,"eccentricity":0.000329,"inclination_deg":97.3887,"raan_deg":199.6557,"arg_perigee_deg":43.6641,"mean_anomaly_deg":316.4857,"bstar":0.00040787,"rev_number":40980,"period_min":94.327740213648,"perigee_km":483.74997579575,"apogee_km":488.26658338973,"semimajor_km":6864.1452795927,"source":"CELESTRAK","updated_at":"2026-05-25T13:37:55.896259Z"}}}